TimeEDT,TemperatureF,Dew PointF,Humidity,Sea Level PressureIn,VisibilityMPH,Wind Direction,Wind SpeedMPH,Gust SpeedMPH,PrecipitationIn,Events,Conditions,WindDirDegrees,DateUTC
12:51 AM,66.0,57.0,73,29.70,10.0,West,10.4,-,N/A,,Mostly Cloudy,260,2013-05-12 04:51:00
1:51 AM,66.0,52.0,60,29.68,10.0,West,11.5,-,N/A,,Mostly Cloudy,270,2013-05-12 05:51:00
2:51 AM,64.0,53.1,67,29.65,10.0,WNW,12.7,-,N/A,,Mostly Cloudy,290,2013-05-12 06:51:00
3:51 AM,63.0,52.0,67,29.68,10.0,WNW,9.2,-,0.00,Rain,Light Rain,290,2013-05-12 07:51:00
4:51 AM,63.0,48.9,60,29.69,10.0,West,6.9,-,0.00,,Overcast,280,2013-05-12 08:51:00
5:51 AM,62.1,46.9,58,29.71,10.0,West,12.7,-,0.00,Rain,Light Rain,270,2013-05-12 09:51:00
6:51 AM,60.1,46.9,62,29.70,8.0,West,3.5,-,0.00,Rain,Light Rain,270,2013-05-12 10:51:00
7:51 AM,59.0,45.0,60,29.71,10.0,West,12.7,20.7,0.01,Rain,Light Rain,270,2013-05-12 11:51:00
8:51 AM,60.1,44.1,55,29.71,10.0,WNW,13.8,21.9,0.00,,Mostly Cloudy,290,2013-05-12 12:51:00
9:51 AM,63.0,43.0,48,29.70,10.0,WNW,8.1,17.3,N/A,,Scattered Clouds,290,2013-05-12 13:51:00
10:51 AM,66.0,41.0,40,29.69,10.0,West,11.5,-,N/A,,Scattered Clouds,270,2013-05-12 14:51:00
11:51 AM,68.0,39.9,36,29.69,10.0,West,18.4,26.5,N/A,,Mostly Cloudy,260,2013-05-12 15:51:00
12:51 PM,69.1,39.0,33,29.68,10.0,WSW,17.3,23.0,N/A,,Mostly Cloudy,250,2013-05-12 16:51:00
1:51 PM,68.0,37.0,32,29.68,10.0,West,11.5,26.5,N/A,,Scattered Clouds,280,2013-05-12 17:51:00
2:51 PM,66.9,28.0,23,29.68,10.0,West,21.9,28.8,N/A,,Scattered Clouds,270,2013-05-12 18:51:00
3:51 PM,66.9,26.1,21,29.68,10.0,WSW,20.7,27.6,N/A,,Clear,250,2013-05-12 19:51:00
4:51 PM,66.0,21.0,18,29.70,10.0,West,18.4,31.1,N/A,,Clear,260,2013-05-12 20:51:00
5:51 PM,64.9,24.1,21,29.74,10.0,West,23.0,28.8,N/A,,Clear,270,2013-05-12 21:51:00
6:51 PM,63.0,21.9,21,29.77,10.0,West,24.2,33.4,N/A,,Scattered Clouds,270,2013-05-12 22:51:00
7:51 PM,61.0,19.9,21,29.81,10.0,West,21.9,31.1,N/A,,Partly Cloudy,260,2013-05-12 23:51:00
8:51 PM,59.0,23.0,25,29.84,10.0,West,16.1,28.8,N/A,,Scattered Clouds,270,2013-05-13 00:51:00
9:51 PM,57.9,25.0,28,29.89,10.0,WNW,19.6,33.4,N/A,,Scattered Clouds,290,2013-05-13 01:51:00
10:51 PM,55.0,25.0,31,29.92,10.0,West,16.1,25.3,N/A,,Clear,270,2013-05-13 02:51:00
11:51 PM,54.0,26.1,34,29.93,10.0,West,16.1,24.2,N/A,,Clear,280,2013-05-13 03:51:00